Peachtree City, GA

10:11 PM EST on December 10, 2019 (GMT -0500)
Peachtree City-Falcon

Weather History for KFFC - June, 2019

Change the Weather History Date:

Friday, June 14, 2019

  Actual Average Record
Temperature  
Mean Temperature 69 °F 76 °F  
Max Temperature 83 °F 87 °F 95 °F (1998)
Min Temperature 54 °F 64 °F 54 °F (2019)
Degree Days  
Heating Degree Days 0 0  
Month to date heating degree days 0 0  
Since 1 June heating degree days 0 0  
Since 1 July heating degree days 2325 2950  
Cooling Degree Days 4 11  
Month to date cooling degree days 149 133  
Year to date cooling degree days 556 323  
Since 1 June cooling degree days 149 133  
Growing Degree Days 18 (Base 50)    
Moisture  
Dew Point 53 °F    
Average Humidity 61    
Maximum Humidity 93    
Minimum Humidity 28    
Precipitation  
Precipitation 0.00 in 0.12 in 0.76 in (1999)
Month to date precipitation 6.94 1.72  
Year to date precipitation 27.70 23.24  
Snow  
Snow 0.00 in - - ()
Month to date snowfall 0.0  
Since 1 June snowfall 0.0  
Since 1 July snowfall T  
Snow Depth 0.00 in    
Sea Level Pressure  
Sea Level Pressure 30.16 in    
Wind  
Wind Speed 1 mph (NNW)    
Max Wind Speed 9 mph    
Max Gust Speed 11 mph    
Visibility 10 miles    
Events      
T = Trace of Precipitation, MM = Missing Value Source: NWS Daily Summary

Daily Weather History Graph

Daily Weather History Graph

Search for Another Location

Airport or City:

Astronomy

Jun. 14, 2019 Rise Set
Actual Time 6:28 AM EDT 8:49 PM EDT
Civil Twilight 5:59 AM EDT 9:17 PM EDT
Nautical Twilight 5:23 AM EDT 9:53 PM EDT
Astronomical Twilight 4:45 AM EDT 10:31 PM EDT
Moon 6:17 PM EDT (6/14) 4:35 AM EDT (6/14)
Length of Visible Light 15h 18m
Length of Day
14h 20m
Waxing Gibbous, 92% of the Moon is Illuminated
Jun 14
Waxing Gibbous
Jun 17
Full
Jun 25
Last Quarter
Jul 2
New
Jul 9
First Quarter

Hourly Weather History & Observations

Time (EDT) Temp. Dew Point Humidity Pressure Visibility Wind Dir Wind Speed Gust Speed Precip Events Conditions
12:53 AM 60.1 °F 57.0 °F 90% 30.12 in 10.0 mi Calm Calm - N/A   Clear
1:53 AM 59.0 °F 55.9 °F 90% 30.12 in 10.0 mi Calm Calm - N/A   Clear
2:53 AM 57.9 °F 55.0 °F 90% 30.12 in 10.0 mi Calm Calm - N/A   Clear
3:53 AM 57.0 °F 54.0 °F 89% 30.12 in 10.0 mi Calm Calm - N/A   Clear
4:53 AM 55.9 °F 53.1 °F 90% 30.13 in 10.0 mi Calm Calm - N/A   Clear
5:53 AM 55.0 °F 52.0 °F 89% 30.16 in 10.0 mi Calm Calm - N/A   Clear
6:53 AM 54.0 °F 52.0 °F 93% 30.17 in 10.0 mi Calm Calm - N/A   Clear
7:53 AM 60.1 °F 57.0 °F 90% 30.19 in 10.0 mi Calm Calm - N/A   Clear
8:53 AM 66.9 °F 57.0 °F 70% 30.21 in 10.0 mi Calm Calm - N/A   Clear
9:53 AM 73.0 °F 52.0 °F 48% 30.21 in 10.0 mi NE 4.6 mph - N/A   Clear
10:53 AM 75.0 °F 50.0 °F 41% 30.21 in 10.0 mi Calm Calm - N/A   Clear
11:53 AM 78.1 °F 48.9 °F 36% 30.22 in 10.0 mi NNE 4.6 mph - N/A   Clear
12:53 PM 78.1 °F 48.9 °F 36% 30.21 in 10.0 mi Variable 3.5 mph - N/A   Clear
1:53 PM 80.1 °F 48.9 °F 34% 30.19 in 10.0 mi Calm Calm - N/A   Clear
2:53 PM 81.0 °F 48.0 °F 31% 30.17 in 10.0 mi Calm Calm - N/A   Clear
3:53 PM 82.0 °F 46.9 °F 29% 30.15 in 10.0 mi West 6.9 mph - N/A   Clear
4:53 PM 82.9 °F 48.9 °F 31% 30.13 in 10.0 mi NW 3.5 mph - N/A   Clear
5:53 PM 82.0 °F 50.0 °F 33% 30.13 in 10.0 mi Calm Calm - N/A   Clear
6:53 PM 81.0 °F 50.0 °F 34% 30.12 in 10.0 mi South 3.5 mph - N/A   Clear
7:53 PM 75.9 °F 60.1 °F 58% 30.13 in 10.0 mi Calm Calm - N/A   Clear
8:53 PM 68.0 °F 60.1 °F 76% 30.13 in 10.0 mi Calm Calm - N/A   Clear
9:53 PM 64.0 °F 60.1 °F 87% 30.12 in 10.0 mi Calm Calm - N/A   Clear